This is the latest recevied weather packets stored in our database for station/object WX5RP. If no packets are shown the sender has not sent any weather packets the latest 10 day(s).
| Time | Temp. | Humidity | Pressure | Rain* | Wind** | Luminosity | Snow |
|---|---|---|---|---|---|---|---|
| 1778273117 | 21.11° C | 24% | 1019.2 hPa | 0 mm | - | 964 W/m² | - |
| 1778272517 | 21.67° C | 24% | 1019.4 hPa | 0 mm | - | 852 W/m² | - |
| 1778271917 | 21.11° C | 24% | 1019.1 hPa | 0 mm | - | 938 W/m² | - |
| 1778271318 | 21.11° C | 23% | 1019 hPa | 0 mm | - | 956 W/m² | - |
| 1778270717 | 21.67° C | 24% | 1019.6 hPa | 0 mm | - | 982 W/m² | - |
| 1778270117 | 20.56° C | 24% | 1019.8 hPa | 0 mm | - | 1004 W/m² | - |
| 1778269517 | 20.56° C | 27% | 1020.2 hPa | 0 mm | - | 797 W/m² | - |
| 1778268919 | 20° C | 27% | 1020.2 hPa | 0 mm | - | 663 W/m² | - |
| 1778268317 | 18.89° C | 27% | 1020 hPa | 0 mm | - | 763 W/m² | - |
| 1778267717 | 18.89° C | 28% | 1020 hPa | 0 mm | - | 386 W/m² | - |
| 1778267117 | 18.89° C | 25% | 1020 hPa | 0 mm | - | 580 W/m² | - |
| 1778266517 | 18.33° C | 27% | 1020.1 hPa | 0 mm | - | 474 W/m² | - |
| 1778265917 | 18.33° C | 27% | 1020.4 hPa | 0 mm | - | 571 W/m² | - |
| 1778265318 | 18.33° C | 33% | 1020.3 hPa | 0 mm | - | 436 W/m² | - |
| 1778264717 | 18.89° C | 30% | 1020.8 hPa | 0 mm | - | 437 W/m² | - |
| 1778264117 | 18.33° C | 29% | 1020.7 hPa | 0 mm | - | 496 W/m² | - |
| 1778263516 | 17.78° C | 30% | 1020.6 hPa | 0 mm | - | 735 W/m² | - |
| 1778262916 | 17.78° C | 32% | 1020.8 hPa | 0 mm | - | 479 W/m² | - |
| 1778262317 | 17.22° C | 36% | 1020.8 hPa | 0 mm | - | 1074 W/m² | - |
| 1778261716 | 16.67° C | 38% | 1020.9 hPa | 0 mm | - | 749 W/m² | - |
| 1778261116 | 15.56° C | 34% | 1020.8 hPa | 0 mm | - | 525 W/m² | - |
| 1778260516 | 15.56° C | 42% | 1020.3 hPa | 0 mm | - | 394 W/m² | - |
| 1778259916 | 15.56° C | 38% | 1020.6 hPa | 0 mm | - | 380 W/m² | - |
| 1778259316 | 15.56° C | 38% | 1021.2 hPa | 0 mm | - | 608 W/m² | - |
| 1778258716 | 15° C | 40% | 1021.5 hPa | 0 mm | - | 454 W/m² | - |
* Rain latest hour (hover to see other rain measurements)
** Current wind speed in m/s (hover to see current wind gust speed)